CPA210 OBBI-UBBB

Flight info

Callsign CPA210
Flight time 2h 49m
Altitude 38000
Route BHR345/30R BHR M444 DAVUS L602 GADSI M860 NINVA UM860 SRT DCT MUS UW71 ERZ/N0493F390 DCT GONPU UN61 NOLGA DCT LAGAS M747 SUBUT T923 ERLEV
Aircraft B77W/H-SDE1E2E3FGHIJ2J3J4J5M1RWXY/LB1D1

Departure

Time 2026-05-07 07:29
Airport Bahrain International Airport (OBBI)

Arrival

Time 2026-05-07 10:18
Airport Heydar Aliyev International Airport (UBBB)
Time Latitude Longitude Altitude Speed Heading
2026-05-07 07:07 26.26978 50.62791 19 ft 0 kts 211°
2026-05-07 07:18 26.26995 50.62802 20 ft 3 kts 211°
2026-05-07 07:19 26.27013 50.62814 21 ft 3 kts 211°
2026-05-07 07:19 26.27031 50.62827 22 ft 3 kts 201°
2026-05-07 07:19 26.27052 50.62829 21 ft 3 kts 161°
2026-05-07 07:19 26.27072 50.62820 24 ft 3 kts 133°
2026-05-07 07:20 26.27080 50.62809 22 ft 0 kts 120°
2026-05-07 07:24 26.27067 50.62855 23 ft 11 kts 83°
2026-05-07 07:24 26.27103 50.62928 20 ft 11 kts 79°
2026-05-07 07:24 26.27077 50.63016 20 ft 18 kts 121°
2026-05-07 07:24 26.26969 50.63206 17 ft 34 kts 123°
2026-05-07 07:25 26.26723 50.63633 19 ft 31 kts 122°
2026-05-07 07:25 26.26610 50.63831 19 ft 30 kts 122°
2026-05-07 07:25 26.26499 50.64027 19 ft 30 kts 122°
2026-05-07 07:26 26.26385 50.64222 18 ft 30 kts 123°
2026-05-07 07:26 26.26272 50.64417 16 ft 30 kts 122°
2026-05-07 07:26 26.26162 50.64610 17 ft 30 kts 122°
2026-05-07 07:26 26.26063 50.64783 18 ft 23 kts 122°
2026-05-07 07:27 26.26021 50.64913 19 ft 15 kts 82°
2026-05-07 07:27 26.26025 50.64926 19 ft 0 kts 69°
2026-05-07 07:27 26.26026 50.64928 19 ft 3 kts 69°
2026-05-07 07:27 26.26079 50.64995 24 ft 15 kts 34°
2026-05-07 07:28 26.26165 50.64960 23 ft 15 kts 307°
2026-05-07 07:28 26.26234 50.64848 19 ft 25 kts 304°
2026-05-07 07:28 26.26398 50.64564 17 ft 74 kts 301°
2026-05-07 07:28 26.26796 50.63866 19 ft 137 kts 302°
2026-05-07 07:29 26.27412 50.62808 32 ft 184 kts 304°
2026-05-07 07:29 26.28132 50.61579 483 ft 187 kts 304°
2026-05-07 07:29 26.28921 50.60470 1135 ft 183 kts 324°
2026-05-07 07:29 26.30121 50.59884 1395 ft 201 kts 352°
2026-05-07 07:30 26.31575 50.59646 1612 ft 223 kts 350°
2026-05-07 07:30 26.33149 50.59282 2001 ft 238 kts 349°
2026-05-07 07:30 26.34805 50.58888 2541 ft 248 kts 349°
2026-05-07 07:30 26.36525 50.58477 3154 ft 253 kts 349°
2026-05-07 07:31 26.38278 50.58060 3532 ft 258 kts 349°
2026-05-07 07:31 26.40045 50.57640 3928 ft 265 kts 348°
2026-05-07 07:31 26.41850 50.57209 4019 ft 266 kts 349°
2026-05-07 07:31 26.43660 50.56777 4527 ft 268 kts 348°
2026-05-07 07:32 26.45493 50.56342 5186 ft 270 kts 347°
2026-05-07 07:32 26.47351 50.55900 5823 ft 275 kts 346°
2026-05-07 07:32 26.49181 50.55466 6572 ft 274 kts 346°
2026-05-07 07:32 26.51091 50.55010 7112 ft 281 kts 346°
2026-05-07 07:33 26.53014 50.54551 7732 ft 284 kts 346°
2026-05-07 07:33 26.54955 50.54050 8335 ft 288 kts 342°
2026-05-07 07:33 26.56864 50.53457 8996 ft 289 kts 340°
2026-05-07 07:33 26.58796 50.52797 9659 ft 292 kts 340°
2026-05-07 07:34 26.60744 50.52095 10214 ft 298 kts 339°
2026-05-07 07:34 26.62792 50.51333 10453 ft 318 kts 339°
2026-05-07 07:34 26.64960 50.50515 10610 ft 340 kts 339°
2026-05-07 07:34 26.67239 50.49653 10777 ft 360 kts 339°
2026-05-07 07:35 26.69594 50.48525 11022 ft 375 kts 329°
2026-05-07 07:35 26.71801 50.46925 11553 ft 381 kts 320°
2026-05-07 07:35 26.73793 50.44948 12252 ft 384 kts 313°
2026-05-07 07:35 26.75713 50.42863 13100 ft 386 kts 313°
2026-05-07 07:36 26.77662 50.40762 13849 ft 392 kts 313°
2026-05-07 07:36 26.79655 50.38643 14474 ft 398 kts 314°
2026-05-07 07:36 26.81681 50.36506 15171 ft 402 kts 314°
2026-05-07 07:36 26.83508 50.34578 15819 ft 405 kts 314°
2026-05-07 07:37 26.85563 50.32406 16537 ft 409 kts 314°
2026-05-07 07:37 26.87647 50.30200 17253 ft 414 kts 314°
2026-05-07 07:37 26.89751 50.27971 17954 ft 418 kts 314°
2026-05-07 07:37 26.91876 50.25718 18585 ft 423 kts 314°
2026-05-07 07:38 26.94016 50.23449 19213 ft 426 kts 314°
2026-05-07 07:38 26.96175 50.21159 19849 ft 429 kts 314°
2026-05-07 07:38 26.98023 50.19197 20368 ft 432 kts 314°
2026-05-07 07:38 26.99476 50.17653 20726 ft 436 kts 314°
2026-05-07 07:39 27.01742 50.15246 21315 ft 440 kts 314°
2026-05-07 07:39 27.03970 50.12879 21917 ft 443 kts 314°
2026-05-07 07:39 27.06296 50.10580 22529 ft 447 kts 318°
2026-05-07 07:39 27.08752 50.08403 23097 ft 452 kts 319°
2026-05-07 07:40 27.11259 50.06252 23592 ft 456 kts 319°
2026-05-07 07:40 27.13791 50.04083 24034 ft 460 kts 319°
2026-05-07 07:40 27.16335 50.01886 24525 ft 461 kts 318°
2026-05-07 07:40 27.18873 49.99673 25015 ft 463 kts 318°
2026-05-07 07:41 27.20874 49.97917 25388 ft 465 kts 317°
2026-05-07 07:41 27.22809 49.96213 25741 ft 467 kts 317°
2026-05-07 07:41 27.25295 49.94023 26141 ft 470 kts 317°
2026-05-07 07:41 27.27843 49.91779 26580 ft 472 kts 317°
2026-05-07 07:42 27.30088 49.89803 26964 ft 474 kts 317°
2026-05-07 07:42 27.31894 49.88212 27267 ft 476 kts 316°
2026-05-07 07:42 27.33982 49.86373 27574 ft 478 kts 316°
2026-05-07 07:42 27.36607 49.84060 27978 ft 481 kts 316°
2026-05-07 07:43 27.39242 49.81736 28383 ft 482 kts 316°
2026-05-07 07:43 27.41849 49.79436 28787 ft 484 kts 316°
2026-05-07 07:43 27.44502 49.77094 29181 ft 486 kts 315°
2026-05-07 07:43 27.47165 49.74741 29517 ft 488 kts 315°
2026-05-07 07:44 27.49597 49.72590 29811 ft 489 kts 315°
2026-05-07 07:44 27.52276 49.70220 30099 ft 491 kts 315°
2026-05-07 07:44 27.54970 49.67835 30353 ft 493 kts 315°
2026-05-07 07:44 27.57664 49.65449 30647 ft 493 kts 315°
2026-05-07 07:45 27.59484 49.63837 30880 ft 492 kts 315°
2026-05-07 07:45 27.63040 49.60685 31420 ft 489 kts 314°
2026-05-07 07:45 27.65706 49.58320 31852 ft 486 kts 314°
2026-05-07 07:46 27.68377 49.55945 31908 ft 493 kts 314°
2026-05-07 07:46 27.76572 49.48639 31936 ft 507 kts 314°
2026-05-07 07:47 27.81896 49.43893 31929 ft 511 kts 314°
2026-05-07 07:47 27.87261 49.39106 31931 ft 511 kts 314°
2026-05-07 07:48 27.92875 49.34163 31929 ft 514 kts 317°
2026-05-07 07:48 27.97914 49.30694 31953 ft 522 kts 325°
2026-05-07 07:49 28.04364 49.27523 31935 ft 526 kts 330°
2026-05-07 07:49 28.11054 49.24427 31936 ft 525 kts 330°
2026-05-07 07:50 28.17701 49.21268 31955 ft 523 kts 329°
2026-05-07 07:50 28.24322 49.18091 31933 ft 523 kts 329°
2026-05-07 07:51 28.30289 49.15180 31939 ft 522 kts 329°
2026-05-07 07:51 28.36711 49.12017 31947 ft 522 kts 328°
2026-05-07 07:52 28.42949 49.08210 31947 ft 509 kts 319°
2026-05-07 07:52 28.48717 49.03721 31943 ft 509 kts 317°
2026-05-07 07:53 28.54451 48.99251 31951 ft 510 kts 318°
2026-05-07 07:53 28.60198 48.94829 31945 ft 511 kts 318°
2026-05-07 07:54 28.66032 48.90356 31946 ft 511 kts 318°
2026-05-07 07:54 28.71463 48.86185 31957 ft 511 kts 318°
2026-05-07 07:55 28.77351 48.81652 31948 ft 511 kts 318°
2026-05-07 07:55 28.83016 48.77290 31945 ft 511 kts 318°
2026-05-07 07:56 28.88845 48.72820 31959 ft 510 kts 318°
2026-05-07 07:56 28.94601 48.68403 31944 ft 510 kts 318°
2026-05-07 07:57 29.00438 48.63914 31925 ft 510 kts 318°
2026-05-07 07:57 29.06318 48.59382 31938 ft 510 kts 318°
2026-05-07 07:58 29.12199 48.54843 31943 ft 510 kts 318°
2026-05-07 07:58 29.18079 48.50299 31939 ft 510 kts 318°
2026-05-07 07:59 29.23964 48.45745 31957 ft 510 kts 318°
2026-05-07 07:59 29.29844 48.41189 31929 ft 510 kts 318°
2026-05-07 08:00 29.35724 48.36624 31946 ft 510 kts 318°
2026-05-07 08:00 29.41599 48.32059 31937 ft 510 kts 318°
2026-05-07 08:01 29.47657 48.27737 31943 ft 514 kts 322°
2026-05-07 08:01 29.53890 48.23689 31935 ft 515 kts 323°
2026-05-07 08:02 29.60133 48.19634 31933 ft 515 kts 323°
2026-05-07 08:02 29.66304 48.15580 31930 ft 515 kts 322°
2026-05-07 08:03 29.72526 48.11470 31952 ft 515 kts 322°
2026-05-07 08:03 29.78743 48.07358 31929 ft 515 kts 322°
2026-05-07 08:04 29.84950 48.03250 31924 ft 514 kts 322°
2026-05-07 08:04 29.91148 47.99142 31934 ft 514 kts 322°
2026-05-07 08:05 29.97346 47.95022 31921 ft 512 kts 321°
2026-05-07 08:05 30.03003 47.90225 31933 ft 499 kts 311°
2026-05-07 08:06 30.07779 47.84537 31930 ft 490 kts 303°
2026-05-07 08:06 30.12199 47.78553 31929 ft 490 kts 303°
2026-05-07 08:07 30.16632 47.72573 31930 ft 490 kts 303°
2026-05-07 08:07 30.21084 47.66607 31945 ft 490 kts 303°
2026-05-07 08:08 30.25416 47.60810 31903 ft 488 kts 303°
2026-05-07 08:08 30.27636 47.57838 31477 ft 489 kts 303°
2026-05-07 08:08 30.29833 47.54889 31066 ft 492 kts 303°
2026-05-07 08:08 30.32081 47.51867 30653 ft 496 kts 304°
2026-05-07 08:09 30.34334 47.48838 30242 ft 498 kts 304°
2026-05-07 08:09 30.36710 47.45645 29992 ft 499 kts 304°
2026-05-07 08:09 30.38987 47.42582 29964 ft 499 kts 304°
2026-05-07 08:10 30.43514 47.36487 29959 ft 500 kts 304°
2026-05-07 08:10 30.48051 47.30365 29972 ft 500 kts 304°
2026-05-07 08:11 30.52360 47.24541 29962 ft 500 kts 304°
2026-05-07 08:11 30.57021 47.18518 29963 ft 505 kts 309°
2026-05-07 08:12 30.62253 47.13396 29980 ft 511 kts 315°
2026-05-07 08:12 30.67828 47.08282 29962 ft 512 kts 314°
2026-05-07 08:13 30.73393 47.03129 29973 ft 511 kts 314°
2026-05-07 08:13 30.78938 46.97946 29974 ft 512 kts 314°
2026-05-07 08:14 30.84485 46.92739 29974 ft 512 kts 314°
2026-05-07 08:14 30.90023 46.87535 29987 ft 512 kts 314°
2026-05-07 08:15 30.95566 46.82320 29979 ft 512 kts 314°
2026-05-07 08:15 31.01078 46.77128 29984 ft 512 kts 314°
2026-05-07 08:16 31.06612 46.71907 29999 ft 512 kts 314°
2026-05-07 08:16 31.12150 46.66673 29982 ft 512 kts 314°
2026-05-07 08:17 31.17688 46.61431 29978 ft 512 kts 314°
2026-05-07 08:17 31.23224 46.56184 30002 ft 512 kts 313°
2026-05-07 08:18 31.28756 46.50931 30000 ft 513 kts 313°
2026-05-07 08:18 31.34262 46.45697 30024 ft 513 kts 313°
2026-05-07 08:19 31.39790 46.40433 30018 ft 513 kts 313°
2026-05-07 08:19 31.45332 46.35146 29999 ft 513 kts 313°
2026-05-07 08:20 31.50858 46.29867 30023 ft 513 kts 313°
2026-05-07 08:20 31.56392 46.24570 30021 ft 513 kts 313°
2026-05-07 08:21 31.61882 46.19309 30019 ft 513 kts 313°
2026-05-07 08:21 31.67407 46.14005 30038 ft 512 kts 313°
2026-05-07 08:22 31.72922 46.08703 30035 ft 512 kts 313°
2026-05-07 08:22 31.78418 46.03367 30041 ft 511 kts 313°
2026-05-07 08:23 31.83841 45.97971 30031 ft 511 kts 312°
2026-05-07 08:23 31.89225 45.92592 30036 ft 511 kts 312°
2026-05-07 08:24 31.94649 45.87182 30034 ft 511 kts 312°
2026-05-07 08:24 32.00086 45.81761 30036 ft 512 kts 312°
2026-05-07 08:25 32.05519 45.76336 30040 ft 512 kts 312°
2026-05-07 08:25 32.10955 45.70898 30040 ft 512 kts 312°
2026-05-07 08:26 32.18181 45.63656 30055 ft 512 kts 312°
2026-05-07 08:26 32.24536 45.57273 30050 ft 512 kts 312°
2026-05-07 08:27 32.29046 45.52735 30047 ft 513 kts 312°
2026-05-07 08:27 32.34479 45.47262 30057 ft 513 kts 312°
2026-05-07 08:28 32.39920 45.41770 30052 ft 512 kts 312°
2026-05-07 08:28 32.45364 45.36267 30063 ft 512 kts 312°
2026-05-07 08:29 32.50780 45.30783 30052 ft 512 kts 312°
2026-05-07 08:29 32.56017 45.25612 30057 ft 516 kts 316°
2026-05-07 08:30 32.61873 45.20928 30069 ft 520 kts 319°
2026-05-07 08:30 32.67932 45.16218 30053 ft 520 kts 319°
2026-05-07 08:31 32.73961 45.11472 30076 ft 519 kts 319°
2026-05-07 08:31 32.79969 45.06699 30059 ft 519 kts 319°
2026-05-07 08:32 32.85967 45.01918 30062 ft 518 kts 319°
2026-05-07 08:32 32.91946 44.97148 30072 ft 517 kts 319°
2026-05-07 08:33 32.97919 44.92378 30068 ft 516 kts 319°
2026-05-07 08:33 33.03873 44.87614 30067 ft 515 kts 319°
2026-05-07 08:34 33.09817 44.82849 30072 ft 514 kts 319°
2026-05-07 08:34 33.15838 44.78015 30077 ft 514 kts 319°
2026-05-07 08:35 33.22258 44.74110 30069 ft 528 kts 332°
2026-05-07 08:35 33.28082 44.71774 30094 ft 533 kts 336°
2026-05-07 08:36 33.35354 44.69256 30073 ft 536 kts 337°
2026-05-07 08:36 33.42526 44.66815 30066 ft 536 kts 337°
2026-05-07 08:37 33.49648 44.64341 30062 ft 536 kts 337°
2026-05-07 08:37 33.56817 44.61814 30082 ft 536 kts 336°
2026-05-07 08:38 33.63974 44.59280 30069 ft 536 kts 336°
2026-05-07 08:38 33.71128 44.56745 30065 ft 536 kts 336°
2026-05-07 08:39 33.78276 44.54211 30064 ft 535 kts 336°
2026-05-07 08:39 33.85418 44.51675 30089 ft 535 kts 336°
2026-05-07 08:40 33.92571 44.49131 30070 ft 535 kts 336°
2026-05-07 08:40 33.99712 44.46586 30067 ft 535 kts 336°
2026-05-07 08:41 34.06856 44.44036 30087 ft 535 kts 336°
2026-05-07 08:41 34.13954 44.41498 30089 ft 535 kts 336°
2026-05-07 08:42 34.21091 44.38941 30074 ft 535 kts 336°
2026-05-07 08:42 34.28236 44.36376 30098 ft 535 kts 336°
2026-05-07 08:43 34.35365 44.33814 30070 ft 534 kts 336°
2026-05-07 08:43 34.42487 44.31249 30072 ft 533 kts 336°
2026-05-07 08:44 34.49612 44.28679 30077 ft 533 kts 336°
2026-05-07 08:44 34.56721 44.26109 30080 ft 534 kts 336°
2026-05-07 08:45 34.63833 44.23533 30074 ft 534 kts 336°
2026-05-07 08:45 34.70956 44.20950 30082 ft 534 kts 336°
2026-05-07 08:46 34.78082 44.18360 30074 ft 535 kts 336°
2026-05-07 08:46 34.85218 44.15763 30072 ft 535 kts 336°
2026-05-07 08:47 34.92346 44.13163 30075 ft 535 kts 336°
2026-05-07 08:47 34.99429 44.10576 30080 ft 535 kts 336°
2026-05-07 08:48 35.06559 44.07966 30072 ft 535 kts 336°
2026-05-07 08:48 35.13687 44.05352 30074 ft 534 kts 336°
2026-05-07 08:49 35.20808 44.02736 30097 ft 535 kts 335°
2026-05-07 08:49 35.27939 44.00111 30079 ft 535 kts 335°
2026-05-07 08:50 35.35068 43.97483 30075 ft 535 kts 335°
2026-05-07 08:50 35.42217 43.94843 30073 ft 534 kts 335°
2026-05-07 08:51 35.49374 43.92194 30069 ft 534 kts 335°
2026-05-07 08:51 35.56488 43.89556 30062 ft 534 kts 335°
2026-05-07 08:52 35.63601 43.86914 30068 ft 534 kts 335°
2026-05-07 08:52 35.70712 43.84268 30070 ft 534 kts 335°
2026-05-07 08:53 35.77818 43.81617 30080 ft 534 kts 335°
2026-05-07 08:53 35.84936 43.78957 30089 ft 534 kts 335°
2026-05-07 08:54 35.92058 43.76293 30079 ft 534 kts 335°
2026-05-07 08:54 35.99172 43.73626 30098 ft 534 kts 334°
2026-05-07 08:55 36.06240 43.70972 30104 ft 533 kts 334°
2026-05-07 08:55 36.13332 43.68303 30113 ft 533 kts 334°
2026-05-07 08:56 36.20423 43.65628 30101 ft 532 kts 334°
2026-05-07 08:56 36.27506 43.62952 30069 ft 532 kts 334°
2026-05-07 08:57 36.34602 43.60266 30084 ft 533 kts 334°
2026-05-07 08:57 36.41702 43.57572 30070 ft 533 kts 334°
2026-05-07 08:58 36.48796 43.54875 30073 ft 534 kts 334°
2026-05-07 08:58 36.55913 43.52166 30074 ft 534 kts 334°
2026-05-07 08:59 36.62981 43.49472 30082 ft 535 kts 334°
2026-05-07 08:59 36.70091 43.46755 30075 ft 535 kts 334°
2026-05-07 09:00 36.77213 43.44028 30090 ft 535 kts 334°
2026-05-07 09:00 36.84326 43.41303 30082 ft 534 kts 334°
2026-05-07 09:01 36.90260 43.39020 30105 ft 533 kts 334°
2026-05-07 09:01 36.97391 43.36271 30087 ft 532 kts 334°
2026-05-07 09:02 37.04463 43.33542 30090 ft 532 kts 334°
2026-05-07 09:02 37.11500 43.30824 30125 ft 532 kts 335°
2026-05-07 09:03 37.18282 43.28480 30119 ft 539 kts 341°
2026-05-07 09:03 37.25673 43.27452 30118 ft 550 kts 350°
2026-05-07 09:04 37.33324 43.27033 30100 ft 550 kts 351°
2026-05-07 09:04 37.41022 43.26592 30129 ft 549 kts 350°
2026-05-07 09:05 37.48670 43.26087 30121 ft 550 kts 349°
2026-05-07 09:05 37.56316 43.25554 30153 ft 551 kts 350°
2026-05-07 09:06 37.63828 43.25040 30148 ft 551 kts 350°
2026-05-07 09:06 37.71491 43.24523 30173 ft 551 kts 350°
2026-05-07 09:07 37.79145 43.24004 30150 ft 550 kts 350°
2026-05-07 09:07 37.86781 43.23484 30144 ft 549 kts 350°
2026-05-07 09:08 37.94408 43.22962 30151 ft 547 kts 350°
2026-05-07 09:08 38.01999 43.22442 30153 ft 546 kts 350°
2026-05-07 09:09 38.09591 43.21922 30136 ft 545 kts 350°
2026-05-07 09:09 38.17169 43.21400 30145 ft 545 kts 351°
2026-05-07 09:10 38.24739 43.20875 30157 ft 544 kts 351°
2026-05-07 09:10 38.32361 43.20350 30163 ft 544 kts 351°
2026-05-07 09:11 38.39951 43.19825 30155 ft 544 kts 351°
2026-05-07 09:11 38.47510 43.19301 30155 ft 543 kts 351°
2026-05-07 09:12 38.54996 43.18781 30155 ft 543 kts 351°
2026-05-07 09:12 38.62587 43.18251 30168 ft 543 kts 351°
2026-05-07 09:13 38.70094 43.17726 30151 ft 543 kts 351°
2026-05-07 09:13 38.77652 43.17198 30149 ft 543 kts 351°
2026-05-07 09:14 38.85207 43.16670 30146 ft 543 kts 351°
2026-05-07 09:14 38.92750 43.16141 30147 ft 542 kts 351°
2026-05-07 09:15 39.00292 43.15609 30160 ft 542 kts 352°
2026-05-07 09:15 39.07832 43.15077 30159 ft 542 kts 352°
2026-05-07 09:16 39.15313 43.14548 30176 ft 542 kts 352°
2026-05-07 09:16 39.22876 43.14011 30158 ft 543 kts 352°
2026-05-07 09:17 39.30431 43.13475 30144 ft 542 kts 352°
2026-05-07 09:17 39.37962 43.12940 30181 ft 542 kts 352°
2026-05-07 09:18 39.45504 43.12404 30162 ft 542 kts 352°
2026-05-07 09:18 39.53036 43.11867 30161 ft 542 kts 352°
2026-05-07 09:19 39.60575 43.11324 30170 ft 543 kts 352°
2026-05-07 09:19 39.68122 43.10781 30163 ft 543 kts 352°
2026-05-07 09:20 39.75674 43.10237 30158 ft 544 kts 352°
2026-05-07 09:20 39.83194 43.09696 30172 ft 545 kts 351°
2026-05-07 09:21 39.90763 43.09149 30156 ft 545 kts 351°
2026-05-07 09:21 39.98346 43.08600 30157 ft 545 kts 351°
2026-05-07 09:22 40.05924 43.08050 30175 ft 545 kts 351°
2026-05-07 09:22 40.13501 43.07499 30159 ft 545 kts 351°
2026-05-07 09:23 40.21073 43.06947 30158 ft 544 kts 352°
2026-05-07 09:23 40.27905 43.06450 30182 ft 543 kts 352°
2026-05-07 09:24 40.35396 43.05901 30178 ft 542 kts 352°
2026-05-07 09:24 40.42924 43.05347 30179 ft 541 kts 352°
2026-05-07 09:25 40.50453 43.04793 30205 ft 541 kts 352°
2026-05-07 09:25 40.57967 43.04239 30172 ft 540 kts 352°
2026-05-07 09:26 40.65481 43.03685 30178 ft 540 kts 352°
2026-05-07 09:26 40.72975 43.03130 30175 ft 539 kts 352°
2026-05-07 09:27 40.80470 43.02573 30159 ft 540 kts 352°
2026-05-07 09:28 40.91731 43.01736 30168 ft 540 kts 352°
2026-05-07 09:28 40.99240 43.01174 30159 ft 539 kts 353°
2026-05-07 09:29 41.06679 43.00620 30143 ft 537 kts 353°
2026-05-07 09:29 41.12926 43.00152 30162 ft 536 kts 353°
2026-05-07 09:30 41.21569 42.99502 30163 ft 534 kts 354°
2026-05-07 09:30 41.28987 42.98944 30155 ft 533 kts 354°
2026-05-07 09:30 41.32673 42.98991 30137 ft 531 kts
2026-05-07 09:31 41.36238 43.00313 30151 ft 536 kts 23°
2026-05-07 09:31 41.39411 43.02920 30148 ft 538 kts 40°
2026-05-07 09:31 41.41988 43.06530 30143 ft 539 kts 53°
2026-05-07 09:31 41.43971 43.10768 30143 ft 539 kts 65°
2026-05-07 09:32 41.45200 43.15454 30137 ft 534 kts 81°
2026-05-07 09:32 41.46261 43.25226 30149 ft 535 kts 84°
2026-05-07 09:33 41.47253 43.35072 30349 ft 536 kts 84°
2026-05-07 09:33 41.47793 43.39993 30535 ft 536 kts 83°
2026-05-07 09:33 41.48354 43.44902 30795 ft 534 kts 83°
2026-05-07 09:33 41.48924 43.49789 30952 ft 534 kts 83°
2026-05-07 09:34 41.49490 43.54620 31057 ft 536 kts 83°
2026-05-07 09:34 41.50636 43.64493 31153 ft 540 kts 83°
2026-05-07 09:35 41.51777 43.74465 31146 ft 547 kts 84°
2026-05-07 09:35 41.52918 43.84557 31163 ft 552 kts 84°
2026-05-07 09:36 41.54060 43.94708 31161 ft 553 kts 84°
2026-05-07 09:36 41.55192 44.04872 31160 ft 553 kts 84°
2026-05-07 09:37 41.56298 44.15023 31159 ft 550 kts 86°
2026-05-07 09:37 41.56191 44.25139 31135 ft 542 kts 102°
2026-05-07 09:38 41.54458 44.34815 31156 ft 533 kts 113°
2026-05-07 09:38 41.52035 44.44193 31152 ft 534 kts 114°
2026-05-07 09:39 41.50044 44.51998 31159 ft 535 kts 113°
2026-05-07 09:39 41.47669 44.61500 31149 ft 536 kts 113°
2026-05-07 09:40 41.45321 44.70933 31139 ft 536 kts 113°
2026-05-07 09:40 41.42945 44.80423 31138 ft 536 kts 113°
2026-05-07 09:41 41.40576 44.89831 31111 ft 536 kts 114°
2026-05-07 09:41 41.38195 44.99249 31136 ft 537 kts 114°
2026-05-07 09:42 41.35815 45.08632 31142 ft 538 kts 114°
2026-05-07 09:42 41.33404 45.18071 31134 ft 539 kts 114°
2026-05-07 09:43 41.30981 45.27510 31121 ft 540 kts 114°
2026-05-07 09:43 41.28546 45.36966 31132 ft 540 kts 114°
2026-05-07 09:44 41.26106 45.46414 31128 ft 540 kts 114°
2026-05-07 09:44 41.23655 45.55865 31117 ft 541 kts 114°
2026-05-07 09:45 41.21197 45.65313 31113 ft 540 kts 114°
2026-05-07 09:45 41.18714 45.74731 31117 ft 540 kts 114°
2026-05-07 09:46 41.16230 45.84070 31104 ft 540 kts 114°
2026-05-07 09:46 41.13724 45.93467 31124 ft 539 kts 114°
2026-05-07 09:47 41.11216 46.02853 31122 ft 539 kts 115°
2026-05-07 09:47 41.08703 46.12222 31102 ft 539 kts 115°
2026-05-07 09:48 41.06185 46.21578 31124 ft 539 kts 115°
2026-05-07 09:48 41.03659 46.30933 31133 ft 539 kts 115°
2026-05-07 09:49 41.01155 46.40309 31128 ft 540 kts 114°
2026-05-07 09:49 40.98652 46.49706 31112 ft 540 kts 114°
2026-05-07 09:50 40.96160 46.59011 31136 ft 540 kts 114°
2026-05-07 09:50 40.93638 46.68378 31131 ft 541 kts 115°
2026-05-07 09:51 40.91126 46.77755 31117 ft 542 kts 112°
2026-05-07 09:51 40.89403 46.87526 31135 ft 550 kts 102°
2026-05-07 09:52 40.88704 46.97624 31141 ft 553 kts 98°
2026-05-07 09:52 40.88054 47.07622 31126 ft 553 kts 99°
2026-05-07 09:53 40.87326 47.17747 31120 ft 552 kts 99°
2026-05-07 09:53 40.86567 47.27838 31126 ft 552 kts 99°
2026-05-07 09:54 40.85803 47.37936 31123 ft 553 kts 99°
2026-05-07 09:54 40.85034 47.48059 31128 ft 553 kts 99°
2026-05-07 09:55 40.84315 47.58104 31114 ft 554 kts 98°
2026-05-07 09:55 40.83707 47.68265 31088 ft 557 kts 98°
2026-05-07 09:55 40.83405 47.73385 30583 ft 560 kts 98°
2026-05-07 09:56 40.83098 47.78496 29902 ft 554 kts 98°
2026-05-07 09:56 40.82792 47.83521 29162 ft 545 kts 98°
2026-05-07 09:56 40.82397 47.88444 28445 ft 534 kts 103°
2026-05-07 09:56 40.81593 47.93174 27756 ft 523 kts 109°
2026-05-07 09:57 40.80571 47.97742 27085 ft 515 kts 111°
2026-05-07 09:57 40.79481 48.02214 26426 ft 509 kts 112°
2026-05-07 09:57 40.78373 48.06638 25785 ft 504 kts 112°
2026-05-07 09:57 40.77272 48.11003 25147 ft 499 kts 112°
2026-05-07 09:58 40.76175 48.15338 24479 ft 496 kts 112°
2026-05-07 09:58 40.75082 48.19637 23797 ft 493 kts 112°
2026-05-07 09:58 40.73992 48.23910 23003 ft 489 kts 112°
2026-05-07 09:58 40.72912 48.28138 22211 ft 484 kts 112°
2026-05-07 09:59 40.71859 48.32263 21538 ft 478 kts 112°
2026-05-07 09:59 40.70806 48.36389 20901 ft 472 kts 112°
2026-05-07 09:59 40.69767 48.40459 20294 ft 465 kts 112°
2026-05-07 09:59 40.68742 48.44476 19715 ft 459 kts 111°
2026-05-07 10:00 40.67731 48.48440 19129 ft 454 kts 111°
2026-05-07 10:00 40.66730 48.52361 18558 ft 449 kts 111°
2026-05-07 10:00 40.65739 48.56238 17937 ft 444 kts 111°
2026-05-07 10:00 40.64760 48.60069 17280 ft 440 kts 111°
2026-05-07 10:01 40.63790 48.63868 16673 ft 435 kts 111°
2026-05-07 10:01 40.62829 48.67629 16066 ft 431 kts 111°
2026-05-07 10:01 40.61876 48.71354 15462 ft 428 kts 111°
2026-05-07 10:01 40.60931 48.75051 14869 ft 424 kts 111°
2026-05-07 10:02 40.59996 48.78707 14299 ft 420 kts 111°
2026-05-07 10:02 40.59069 48.82331 13709 ft 417 kts 111°
2026-05-07 10:02 40.58148 48.85933 13109 ft 413 kts 110°
2026-05-07 10:02 40.57237 48.89495 12507 ft 409 kts 110°
2026-05-07 10:03 40.56328 48.93051 12214 ft 404 kts 110°
2026-05-07 10:03 40.55426 48.96579 12096 ft 406 kts 110°
2026-05-07 10:03 40.54531 49.00076 12097 ft 401 kts 110°
2026-05-07 10:03 40.53644 49.03538 12086 ft 399 kts 111°
2026-05-07 10:04 40.52758 49.07000 12097 ft 401 kts 111°
2026-05-07 10:04 40.51867 49.10483 12092 ft 403 kts 111°
2026-05-07 10:04 40.50973 49.13987 12096 ft 404 kts 111°
2026-05-07 10:04 40.50091 49.17441 12082 ft 391 kts 111°
2026-05-07 10:05 40.49242 49.20774 12068 ft 377 kts 111°
2026-05-07 10:05 40.48426 49.23979 11993 ft 365 kts 111°
2026-05-07 10:05 40.47630 49.27109 11682 ft 359 kts 111°
2026-05-07 10:05 40.46923 49.29878 11238 ft 359 kts 111°
2026-05-07 10:06 40.46129 49.32987 10759 ft 358 kts 111°
2026-05-07 10:06 40.45341 49.36073 10330 ft 356 kts 111°
2026-05-07 10:06 40.44567 49.39104 9960 ft 353 kts 111°
2026-05-07 10:06 40.43789 49.42146 9511 ft 350 kts 110°
2026-05-07 10:07 40.43017 49.45169 9067 ft 347 kts 110°
2026-05-07 10:07 40.42250 49.48171 8645 ft 345 kts 110°
2026-05-07 10:07 40.41489 49.51145 8212 ft 343 kts 110°
2026-05-07 10:07 40.40734 49.54099 7804 ft 340 kts 110°
2026-05-07 10:08 40.39984 49.57030 7401 ft 338 kts 110°
2026-05-07 10:08 40.39239 49.59944 6992 ft 336 kts 109°
2026-05-07 10:08 40.38498 49.62844 6582 ft 334 kts 109°
2026-05-07 10:08 40.37764 49.65714 6199 ft 331 kts 109°
2026-05-07 10:09 40.37036 49.68561 5830 ft 328 kts 109°
2026-05-07 10:09 40.36315 49.71380 5445 ft 325 kts 109°
2026-05-07 10:09 40.35602 49.74170 5072 ft 321 kts 109°
2026-05-07 10:09 40.34852 49.76898 4621 ft 314 kts 116°
2026-05-07 10:10 40.33559 49.79160 4068 ft 316 kts 140°
2026-05-07 10:10 40.31620 49.80551 3612 ft 315 kts 162°
2026-05-07 10:10 40.29471 49.81063 3100 ft 320 kts 173°
2026-05-07 10:10 40.27302 49.81445 2724 ft 307 kts 163°
2026-05-07 10:11 40.25481 49.82714 2589 ft 291 kts 136°
2026-05-07 10:11 40.24355 49.84789 2581 ft 273 kts 109°
2026-05-07 10:11 40.24030 49.87132 2590 ft 257 kts 92°
2026-05-07 10:11 40.23972 49.89505 2588 ft 263 kts 90°
2026-05-07 10:12 40.23946 49.91886 2515 ft 260 kts 89°
2026-05-07 10:12 40.23923 49.94246 2376 ft 259 kts 89°
2026-05-07 10:12 40.23904 49.96596 2271 ft 258 kts 90°
2026-05-07 10:12 40.23888 49.98942 2160 ft 256 kts 90°
2026-05-07 10:13 40.23873 50.01244 2080 ft 247 kts 89°
2026-05-07 10:13 40.24154 50.03363 1992 ft 229 kts 64°
2026-05-07 10:13 40.24859 50.05125 1980 ft 211 kts 56°
2026-05-07 10:13 40.25922 50.06329 1982 ft 208 kts 20°
2026-05-07 10:14 40.27360 50.06580 2012 ft 213 kts
2026-05-07 10:14 40.28849 50.06577 2003 ft 213 kts
2026-05-07 10:14 40.30303 50.06559 2046 ft 206 kts
2026-05-07 10:14 40.31756 50.06537 1991 ft 209 kts
2026-05-07 10:15 40.33180 50.06513 1991 ft 201 kts
2026-05-07 10:15 40.34491 50.06492 1975 ft 191 kts
2026-05-07 10:15 40.35807 50.06472 1989 ft 189 kts
2026-05-07 10:15 40.37164 50.06454 1668 ft 196 kts
2026-05-07 10:16 40.38486 50.06431 1399 ft 185 kts
2026-05-07 10:16 40.39719 50.06413 1199 ft 173 kts
2026-05-07 10:16 40.40883 50.06395 943 ft 162 kts
2026-05-07 10:16 40.41641 50.06383 835 ft 163 kts
2026-05-07 10:17 40.43105 50.06363 553 ft 165 kts 359°
2026-05-07 10:17 40.44250 50.06332 358 ft 165 kts 359°
2026-05-07 10:17 40.45034 50.06328 166 ft 168 kts 359°
2026-05-07 10:17 40.46534 50.06303 -1 ft 146 kts 359°
2026-05-07 10:18 40.47360 50.06291 3 ft 92 kts 359°
2026-05-07 10:18 40.47714 50.06287 9 ft 62 kts 359°
2026-05-07 10:18 40.48248 50.06278 12 ft 51 kts 359°
2026-05-07 10:18 40.48431 50.06273 13 ft 20 kts 353°
2026-05-07 10:19 40.48501 50.06137 14 ft 20 kts 263°
2026-05-07 10:19 40.48342 50.06065 13 ft 20 kts 180°
2026-05-07 10:19 40.48246 50.06066 12 ft 20 kts 179°
2026-05-07 10:19 40.48106 50.06069 11 ft 20 kts 179°
2026-05-07 10:20 40.47962 50.06071 10 ft 20 kts 179°
2026-05-07 10:20 40.47821 50.06072 8 ft 20 kts 179°
2026-05-07 10:20 40.47679 50.06075 7 ft 20 kts 179°
2026-05-07 10:20 40.47537 50.06077 6 ft 20 kts 179°
2026-05-07 10:21 40.47395 50.06080 5 ft 20 kts 179°
2026-05-07 10:21 40.47253 50.06082 4 ft 20 kts 179°
2026-05-07 10:21 40.47111 50.06086 2 ft 20 kts 179°
2026-05-07 10:21 40.46975 50.06063 1 ft 20 kts 219°
2026-05-07 10:22 40.46944 50.05893 1 ft 20 kts 268°
2026-05-07 10:22 40.46939 50.05713 1 ft 20 kts 268°
2026-05-07 10:22 40.46935 50.05534 2 ft 20 kts 268°
2026-05-07 10:22 40.46914 50.05402 2 ft 14 kts 230°
2026-05-07 10:23 40.46840 50.05340 2 ft 13 kts 257°
2026-05-07 10:23 40.46839 50.05220 2 ft 13 kts 269°
2026-05-07 10:23 40.46808 50.05146 3 ft 7 kts 181°
2026-05-07 10:23 40.46756 50.05156 2 ft 8 kts 170°
2026-05-07 10:24 40.46735 50.05160 2 ft 0 kts 170°